404 - Page Not Found

404

Error - Page Not Found


Please check the URL.

Otherwise, click here to be redirected to the homepage.

  • Currently

    Reported at Minneapolis, Minneapolis-St. Paul International Airport, MN
    1:53 PM CST FRI FEB 23 2018
  • 32°F0°C
  • Partly Cloudy
    Partly Cloudy
  • Feels Like:25°F-4°CDew Point:21°F-6°CHumidity:64% Winds:SSW 9 mph 14 kph
    Pressure:30.18 in1022 hPaVisibility:10.00 miles16090.00 meters
Time Weather Temp Dew Point
Humidity Winds Visibility Pressure Precipitation
1 hr 24 hr
Thursday, February 15
00:53 00:53 Clear Clear 15°F-9°C 5°F-15°C 64% NW 21 mphNW 33 kph 10.0 miles16.1 km 30.18 in1022 hPa 0.00 in0.00 mm --
23:53 23:53 Partly Cloudy Partly Cloudy 20°F-7°C 12°F-11°C 71% NW 14 mphNW 22 kph 10.0 miles16.1 km 30.15 in1021 hPa 0.00 in0.03 mm --
22:53 22:53 Cloudy With Light Snow Cloudy With Light Snow 25°F-4°C 18°F-8°C 75% NNW 17 mphNNW 28 kph 6.0 miles9.7 km 30.12 in1020 hPa 0.00 in0.03 mm --
21:53 21:53 Cloudy Cloudy 27°F-3°C 18°F-8°C 69% NNW 16 mphNNW 26 kph 10.0 miles16.1 km 30.06 in1018 hPa 0.00 in0.00 mm --
20:53 20:53 Cloudy Cloudy 29°F-2°C 20°F-7°C 69% NNW 17 mphNNW 28 kph 10.0 miles16.1 km 30.03 in1017 hPa 0.00 in0.00 mm --
19:53 19:53 Cloudy Cloudy 30°F-1°C 21°F-6°C 69% NNW 16 mphNNW 26 kph 10.0 miles16.1 km 30 in1016 hPa 0.00 in0.00 mm --
19:04 19:04 Cloudy Cloudy 31°F-1°C 22°F-6°C 69% NNW 13 mphNNW 20 kph 10.0 miles16.1 km 29.94 in1014 hPa 0.00 in0.00 mm --
18:53 18:53 Cloudy Cloudy 31°F-1°C 22°F-6°C 69% NNW 17 mphNNW 28 kph 10.0 miles16.1 km 29.94 in1014 hPa 0.00 in0.00 mm --
17:53 17:53 Cloudy Cloudy 32°F0°C 24°F-4°C 73% NW 12 mphNW 19 kph 10.0 miles16.1 km 29.91 in1013 hPa 0.00 in0.00 mm --
16:53 16:53 Mostly Cloudy Mostly Cloudy 34°F1°C 24°F-4°C 67% NNW 14 mphNNW 22 kph 10.0 miles16.1 km 29.88 in1012 hPa 0.00 in0.00 mm --
15:53 15:53 Mostly Cloudy Mostly Cloudy 35°F2°C 25°F-4°C 67% NNW 13 mphNNW 20 kph 10.0 miles16.1 km 29.85 in1011 hPa 0.00 in0.00 mm --
14:53 14:53 Cloudy Cloudy 35°F2°C 26°F-3°C 70% N 13 mphN 20 kph 10.0 miles16.1 km 29.83 in1010 hPa 0.00 in0.00 mm --
13:53 13:53 Cloudy Cloudy 36°F2°C 28°F-2°C 73% NNW 14 mphNNW 22 kph 10.0 miles16.1 km 29.83 in1010 hPa 0.00 in0.00 mm --
12:53 12:53 Cloudy Cloudy 36°F2°C 28°F-2°C 73% NW 13 mphNW 20 kph 10.0 miles16.1 km 29.83 in1010 hPa 0.00 in0.00 mm --
11:53 11:53 Mostly Cloudy Mostly Cloudy 37°F3°C 29°F-2°C 73% NNW 16 mphNNW 26 kph 10.0 miles16.1 km 29.8 in1009 hPa 0.00 in0.00 mm --
10:53 10:53 Mostly Sunny Mostly Sunny 36°F2°C 30°F-1°C 79% NW 12 mphNW 19 kph 10.0 miles16.1 km 29.77 in1008 hPa 0.00 in0.00 mm --
09:53 09:53 Mostly Sunny Mostly Sunny 32°F0°C 28°F-2°C 85% W 6 mphW 9 kph 10.0 miles16.1 km 29.74 in1007 hPa 0.00 in0.00 mm --
08:53 08:53 Mostly Sunny Mostly Sunny 30°F-1°C 26°F-3°C 85% WSW 7 mphWSW 11 kph 10.0 miles16.1 km 29.71 in1006 hPa 0.00 in0.00 mm --
07:53 07:53 Mostly Clear Mostly Clear 30°F-1°C 26°F-3°C 85% SW 8 mphSW 13 kph 10.0 miles16.1 km 29.71 in1006 hPa 0.00 in0.00 mm --
06:53 06:53 Partly Cloudy Partly Cloudy 29°F-2°C 26°F-3°C 89% SW 8 mphSW 13 kph 10.0 miles16.1 km 29.68 in1005 hPa 0.00 in0.00 mm --
05:53 05:53 Mostly Clear Mostly Clear 30°F-1°C 26°F-3°C 85% SW 5 mphSW 7 kph 10.0 miles16.1 km 29.68 in1005 hPa 0.00 in0.00 mm --
04:53 04:53 Mostly Clear Mostly Clear 30°F-1°C 26°F-3°C 85% W 5 mphW 7 kph 10.0 miles16.1 km 29.65 in1004 hPa 0.00 in0.00 mm --
03:53 03:53 Partly Cloudy Partly Cloudy 31°F-1°C 27°F-3°C 85% WSW 6 mphWSW 9 kph 10.0 miles16.1 km 29.65 in1004 hPa 0.00 in0.00 mm --
02:53 02:53 Mostly Cloudy Mostly Cloudy 33°F1°C 27°F-3°C 78% SSW 5 mphSSW 7 kph 10.0 miles16.1 km 29.65 in1004 hPa 0.00 in0.00 mm --
01:53 01:53 Partly Cloudy Partly Cloudy 34°F1°C 28°F-2°C 79% WSW 8 mphWSW 13 kph 10.0 miles16.1 km 29.65 in1004 hPa 0.00 in0.00 mm --
404 - Page Not Found

404

Error - Page Not Found


Please check the URL.

Otherwise, click here to be redirected to the homepage.